Location: Cuiry
(49.3858°N, 3.7708°E)
Time: 09:34:40
(UTC+00:00)

Nadezhda 3 Rocket - Pass Details

Date: 12 January 2026
Orbit: 956 x 997 km, 82.9° (Epoch: 18 February)

Event Time Altitude Azimuth Distance (km) Brightness Sun altitude
Rises 18:13:50 0° 169° (S) 3,626 7.0 -19.4°
Reaches altitude 10° 18:16:23 10° 164° (SSE) 2,682 6.2 -19.9°
Maximum altitude 18:22:15 50° 91° (E) 1,205 4.1 -20.8°
Enters shadow 18:27:29 13° 20° (NNE) 2,462 5.8 -21.6°
